TimeCDT,TemperatureF,Dew PointF,Humidity,Sea Level PressureIn,VisibilityMPH,Wind Direction,Wind SpeedMPH,Gust SpeedMPH,PrecipitationIn,Events,Conditions,WindDirDegrees,DateUTC
12:15 AM,65.3,44.8,47,29.39,10.0,South,10.4,-,N/A,,Clear,190,2012-10-17 05:15:00
12:35 AM,64.6,45.5,50,29.39,10.0,South,9.2,-,N/A,,Scattered Clouds,190,2012-10-17 05:35:00
12:55 AM,64.0,46.2,52,29.38,10.0,South,9.2,-,N/A,,Scattered Clouds,180,2012-10-17 05:55:00
1:15 AM,64.2,46.4,52,29.37,10.0,South,10.4,-,N/A,,Clear,180,2012-10-17 06:15:00
1:35 AM,63.5,46.6,54,29.36,10.0,South,10.4,-,N/A,,Clear,180,2012-10-17 06:35:00
1:55 AM,62.4,47.3,58,29.36,10.0,South,9.2,-,N/A,,Clear,180,2012-10-17 06:55:00
2:15 AM,63.0,47.1,56,29.35,10.0,South,10.4,-,N/A,,Scattered Clouds,180,2012-10-17 07:15:00
2:35 AM,63.5,46.8,54,29.35,10.0,South,9.2,-,N/A,,Clear,190,2012-10-17 07:35:00
2:55 AM,64.4,46.4,52,29.34,10.0,SSW,10.4,-,N/A,,Clear,200,2012-10-17 07:55:00
3:15 AM,63.7,46.0,53,29.34,10.0,SSW,10.4,-,N/A,,Clear,200,2012-10-17 08:15:00
3:35 AM,64.6,45.9,51,29.33,10.0,SSW,10.4,-,N/A,,Clear,210,2012-10-17 08:35:00
3:55 AM,63.9,46.0,52,29.33,10.0,SW,10.4,-,N/A,,Clear,220,2012-10-17 08:55:00
4:15 AM,63.5,46.0,53,29.34,10.0,WSW,10.4,-,N/A,,Clear,240,2012-10-17 09:15:00
4:35 AM,66.6,45.1,46,29.35,10.0,West,21.9,28.8,N/A,,Clear,260,2012-10-17 09:35:00
4:55 AM,64.0,46.4,53,29.37,10.0,WNW,23.0,33.4,N/A,,Clear,300,2012-10-17 09:55:00
5:15 AM,62.6,46.0,55,29.38,10.0,NW,20.7,29.9,N/A,,Clear,310,2012-10-17 10:15:00
5:35 AM,61.9,45.5,55,29.41,10.0,WNW,20.7,34.5,N/A,,Clear,300,2012-10-17 10:35:00
5:55 AM,61.3,45.9,57,29.42,10.0,WNW,18.4,32.2,N/A,,Scattered Clouds,300,2012-10-17 10:55:00
6:15 AM,60.3,46.6,61,29.41,10.0,NW,15.0,23.0,N/A,Rain,Light Rain,310,2012-10-17 11:15:00
6:35 AM,60.4,45.9,59,29.43,10.0,NW,23.0,28.8,N/A,,Mostly Cloudy,310,2012-10-17 11:35:00
6:55 AM,59.4,47.3,64,29.44,10.0,WNW,23.0,31.1,N/A,Rain,Rain,300,2012-10-17 11:55:00
7:15 AM,55.4,50.0,82,29.44,7.0,NW,11.5,-,0.01,Rain,Rain,310,2012-10-17 12:15:00
7:35 AM,54.9,50.2,84,29.46,10.0,West,6.9,-,0.02,Rain,Light Rain,280,2012-10-17 12:35:00
7:55 AM,55.2,49.1,80,29.45,10.0,WNW,9.2,-,0.02,,Overcast,300,2012-10-17 12:55:00
8:15 AM,55.4,47.8,76,29.46,10.0,WNW,10.4,-,N/A,,Mostly Cloudy,300,2012-10-17 13:15:00
8:35 AM,54.9,47.3,76,29.47,10.0,WNW,8.1,-,N/A,,Scattered Clouds,290,2012-10-17 13:35:00
8:55 AM,55.4,46.4,72,29.49,10.0,WNW,10.4,-,N/A,,Scattered Clouds,300,2012-10-17 13:55:00
9:15 AM,55.6,45.0,67,29.51,10.0,WNW,10.4,-,N/A,,Scattered Clouds,290,2012-10-17 14:15:00
9:35 AM,55.9,45.7,68,29.52,10.0,WNW,13.8,18.4,N/A,,Scattered Clouds,290,2012-10-17 14:35:00
9:55 AM,56.5,40.6,55,29.53,10.0,NW,17.3,28.8,N/A,,Scattered Clouds,310,2012-10-17 14:55:00
10:15 AM,56.5,40.3,55,29.53,10.0,NW,18.4,24.2,N/A,,Scattered Clouds,310,2012-10-17 15:15:00
10:35 AM,58.8,37.6,45,29.54,10.0,NW,17.3,25.3,N/A,,Clear,310,2012-10-17 15:35:00
10:55 AM,59.5,34.7,39,29.53,10.0,NW,28.8,36.8,N/A,,Clear,310,2012-10-17 15:55:00
11:15 AM,59.9,32.0,35,29.53,10.0,NW,26.5,35.7,N/A,,Clear,320,2012-10-17 16:15:00
11:35 AM,60.1,32.0,35,29.54,10.0,WNW,29.9,42.6,N/A,,Scattered Clouds,300,2012-10-17 16:35:00
11:55 AM,59.0,33.1,38,29.54,10.0,NW,24.2,34.5,N/A,,Scattered Clouds,310,2012-10-17 16:55:00
12:15 PM,57.7,34.5,42,29.55,10.0,NW,20.7,32.2,N/A,,Scattered Clouds,310,2012-10-17 17:15:00
12:35 PM,59.0,35.2,41,29.55,10.0,NW,24.2,34.5,N/A,,Mostly Cloudy,310,2012-10-17 17:35:00
12:55 PM,59.4,35.1,40,29.55,10.0,WNW,26.5,32.2,N/A,,Overcast,300,2012-10-17 17:55:00
1:15 PM,60.3,34.2,38,29.54,10.0,WNW,29.9,38.0,N/A,,Mostly Cloudy,300,2012-10-17 18:15:00
1:35 PM,59.7,33.8,38,29.54,10.0,NW,26.5,36.8,N/A,,Mostly Cloudy,310,2012-10-17 18:35:00
1:55 PM,58.1,33.4,39,29.53,10.0,WNW,29.9,38.0,N/A,,Overcast,300,2012-10-17 18:55:00
2:15 PM,58.5,32.9,38,29.53,10.0,NW,24.2,36.8,N/A,,Overcast,310,2012-10-17 19:15:00
2:35 PM,58.3,32.4,38,29.53,10.0,WNW,27.6,34.5,N/A,,Overcast,300,2012-10-17 19:35:00
2:55 PM,59.7,32.0,35,29.52,10.0,NW,28.8,38.0,N/A,,Overcast,310,2012-10-17 19:55:00
3:15 PM,58.8,31.5,36,29.52,10.0,WNW,29.9,40.3,N/A,,Overcast,300,2012-10-17 20:15:00
3:35 PM,59.0,30.2,34,29.53,10.0,WNW,27.6,35.7,N/A,,Overcast,300,2012-10-17 20:35:00
3:55 PM,60.1,28.9,31,29.53,10.0,NW,27.6,35.7,N/A,,Overcast,310,2012-10-17 20:55:00
4:15 PM,59.4,27.3,29,29.53,10.0,NW,26.5,36.8,N/A,,Overcast,310,2012-10-17 21:15:00
4:35 PM,59.5,26.8,29,29.53,10.0,WNW,28.8,34.5,N/A,,Overcast,300,2012-10-17 21:35:00
4:55 PM,60.1,23.0,24,29.53,10.0,WNW,26.5,36.8,N/A,,Mostly Cloudy,300,2012-10-17 21:55:00
5:15 PM,61.3,21.6,22,29.53,10.0,NW,35.7,47.2,N/A,,Scattered Clouds,310,2012-10-17 22:15:00
5:35 PM,60.4,19.0,20,29.54,10.0,NW,28.8,46.0,N/A,,Scattered Clouds,310,2012-10-17 22:35:00
5:55 PM,59.9,18.1,20,29.55,10.0,NW,27.6,39.1,N/A,,Mostly Cloudy,310,2012-10-17 22:55:00
6:15 PM,59.2,19.6,22,29.56,10.0,NW,24.2,34.5,N/A,,Overcast,320,2012-10-17 23:15:00
6:55 PM,58.1,15.4,19,29.58,10.0,NW,21.9,33.4,N/A,,Overcast,310,2012-10-17 23:55:00
7:15 PM,57.0,17.2,21,29.59,10.0,NW,13.8,21.9,N/A,,Overcast,310,2012-10-18 00:15:00
7:35 PM,57.2,16.5,20,29.59,10.0,NW,23.0,32.2,N/A,,Overcast,310,2012-10-18 00:35:00
7:55 PM,56.7,17.2,21,29.60,10.0,NW,16.1,24.2,N/A,,Overcast,310,2012-10-18 00:55:00
8:15 PM,55.4,17.8,23,29.60,10.0,WNW,10.4,-,N/A,,Overcast,300,2012-10-18 01:15:00
8:35 PM,55.6,19.9,25,29.61,10.0,WNW,11.5,17.3,N/A,,Mostly Cloudy,300,2012-10-18 01:35:00
8:55 PM,54.9,20.5,26,29.60,10.0,WNW,12.7,-,N/A,,Scattered Clouds,290,2012-10-18 01:55:00
9:15 PM,54.3,20.5,27,29.60,10.0,West,13.8,-,N/A,,Clear,280,2012-10-18 02:15:00
9:35 PM,53.4,20.5,28,29.60,10.0,West,12.7,-,N/A,,Clear,280,2012-10-18 02:35:00
9:55 PM,53.6,20.7,28,29.61,10.0,West,16.1,-,N/A,,Clear,280,2012-10-18 02:55:00
10:15 PM,53.4,20.3,27,29.61,10.0,West,17.3,24.2,N/A,,Clear,280,2012-10-18 03:15:00
10:35 PM,53.4,21.4,29,29.61,10.0,West,17.3,23.0,N/A,,Clear,280,2012-10-18 03:35:00
10:55 PM,52.5,21.7,30,29.61,10.0,West,15.0,-,N/A,,Clear,270,2012-10-18 03:55:00
11:15 PM,52.0,21.6,30,29.61,10.0,West,18.4,21.9,N/A,,Clear,280,2012-10-18 04:15:00
11:35 PM,51.8,21.9,31,29.60,10.0,West,16.1,-,N/A,,Clear,280,2012-10-18 04:35:00
11:55 PM,52.0,22.1,31,29.60,10.0,West,21.9,28.8,N/A,,Clear,280,2012-10-18 04:55:00